SWA1668 KCOS-KDAL

Flight info

Callsign SWA1668
Flight time 1h 15m
Altitude 35000
Route BRK BRESH EZEEE STNLI HERBZ2
Aircraft B738/M-SADE2E3GIJ4RWZ/LB1D1

Departure

Time 2026-05-05 12:42
Airport City of Colorado Springs Municipal Airport (KCOS)

Arrival

Time 2026-05-05 13:57
Airport Dallas Love Field (KDAL)
Time Latitude Longitude Altitude Speed Heading
2026-05-05 12:01 38.80013 -104.70077 6121 ft 0 kts 185°
2026-05-05 12:31 38.80020 -104.70076 6121 ft 2 kts 185°
2026-05-05 12:31 38.80035 -104.70074 6121 ft 2 kts 185°
2026-05-05 12:31 38.80050 -104.70075 6121 ft 2 kts 159°
2026-05-05 12:31 38.80063 -104.70084 6121 ft 2 kts 137°
2026-05-05 12:32 38.80072 -104.70100 6120 ft 2 kts 114°
2026-05-05 12:32 38.80076 -104.70119 6120 ft 2 kts 90°
2026-05-05 12:32 38.80075 -104.70138 6119 ft 2 kts 90°
2026-05-05 12:32 38.80076 -104.70154 6119 ft 0 kts 90°
2026-05-05 12:33 38.80076 -104.70156 6118 ft 0 kts 90°
2026-05-05 12:34 38.80076 -104.70146 6119 ft 3 kts 84°
2026-05-05 12:34 38.80095 -104.70101 6120 ft 9 kts 37°
2026-05-05 12:35 38.80182 -104.70085 6121 ft 14 kts 359°
2026-05-05 12:35 38.80281 -104.70086 6121 ft 14 kts 360°
2026-05-05 12:35 38.80359 -104.70040 6123 ft 12 kts 72°
2026-05-05 12:35 38.80363 -104.69926 6127 ft 15 kts 91°
2026-05-05 12:36 38.80362 -104.69764 6133 ft 21 kts 90°
2026-05-05 12:36 38.80362 -104.69549 6140 ft 24 kts 89°
2026-05-05 12:36 38.80362 -104.69336 6148 ft 22 kts 90°
2026-05-05 12:36 38.80360 -104.69147 6154 ft 19 kts 90°
2026-05-05 12:37 38.80360 -104.68973 6159 ft 19 kts 89°
2026-05-05 12:37 38.80365 -104.68838 6161 ft 10 kts 76°
2026-05-05 12:37 38.80420 -104.68788 6163 ft 11 kts
2026-05-05 12:37 38.80490 -104.68785 6166 ft 8 kts 360°
2026-05-05 12:38 38.80530 -104.68786 6168 ft 2 kts 359°
2026-05-05 12:38 38.80533 -104.68786 6168 ft 0 kts 359°
2026-05-05 12:38 38.80559 -104.68787 6169 ft 7 kts 358°
2026-05-05 12:38 38.80654 -104.68790 6172 ft 19 kts 359°
2026-05-05 12:39 38.80821 -104.68787 6176 ft 25 kts
2026-05-05 12:39 38.80979 -104.68787 6177 ft 20 kts 360°
2026-05-05 12:39 38.81109 -104.68787 6176 ft 18 kts
2026-05-05 12:39 38.81266 -104.68785 6175 ft 26 kts 358°
2026-05-05 12:40 38.81447 -104.68788 6174 ft 22 kts 360°
2026-05-05 12:40 38.81562 -104.68784 6175 ft 13 kts 18°
2026-05-05 12:40 38.81602 -104.68699 6176 ft 10 kts 86°
2026-05-05 12:40 38.81589 -104.68594 6177 ft 12 kts 129°
2026-05-05 12:41 38.81444 -104.68568 6176 ft 44 kts 180°
2026-05-05 12:41 38.80893 -104.68568 6180 ft 111 kts 180°
2026-05-05 12:41 38.79916 -104.68573 6144 ft 169 kts 179°
2026-05-05 12:41 38.78607 -104.68581 6387 ft 196 kts 180°
2026-05-05 12:42 38.77234 -104.68675 7138 ft 200 kts 183°
2026-05-05 12:42 38.75873 -104.68804 7561 ft 202 kts 182°
2026-05-05 12:42 38.74405 -104.68788 7737 ft 216 kts 175°
2026-05-05 12:42 38.72848 -104.68635 7926 ft 230 kts 175°
2026-05-05 12:43 38.71213 -104.68521 8105 ft 245 kts 177°
2026-05-05 12:43 38.69436 -104.68457 8356 ft 260 kts 178°
2026-05-05 12:43 38.67586 -104.68418 8646 ft 273 kts 179°
2026-05-05 12:43 38.65648 -104.68385 9057 ft 281 kts 179°
2026-05-05 12:44 38.63658 -104.68354 9640 ft 286 kts 179°
2026-05-05 12:44 38.61678 -104.68323 10205 ft 291 kts 180°
2026-05-05 12:44 38.59589 -104.68292 10615 ft 307 kts 180°
2026-05-05 12:44 38.57401 -104.68259 11019 ft 323 kts 180°
2026-05-05 12:45 38.55106 -104.68224 11414 ft 339 kts 180°
2026-05-05 12:45 38.52654 -104.68183 11798 ft 353 kts 180°
2026-05-05 12:45 38.50209 -104.68141 12267 ft 357 kts 181°
2026-05-05 12:45 38.47680 -104.67934 12814 ft 366 kts 171°
2026-05-05 12:46 38.45322 -104.66736 13381 ft 376 kts 148°
2026-05-05 12:46 38.43412 -104.64385 13980 ft 385 kts 126°
2026-05-05 12:46 38.42247 -104.61324 14576 ft 391 kts 109°
2026-05-05 12:46 38.41433 -104.57974 15168 ft 396 kts 107°
2026-05-05 12:47 38.40658 -104.54588 15786 ft 399 kts 107°
2026-05-05 12:47 38.39878 -104.51182 16370 ft 405 kts 107°
2026-05-05 12:47 38.39086 -104.47770 16947 ft 408 kts 107°
2026-05-05 12:47 38.38260 -104.44260 17541 ft 413 kts 108°
2026-05-05 12:48 38.37430 -104.40771 18133 ft 419 kts 108°
2026-05-05 12:48 38.36571 -104.37185 18718 ft 423 kts 108°
2026-05-05 12:48 38.35708 -104.33598 19314 ft 428 kts 109°
2026-05-05 12:48 38.34827 -104.29948 19890 ft 433 kts 109°
2026-05-05 12:49 38.33939 -104.26274 20466 ft 438 kts 109°
2026-05-05 12:49 38.33032 -104.22534 21059 ft 443 kts 109°
2026-05-05 12:49 38.32110 -104.18787 21647 ft 447 kts 111°
2026-05-05 12:49 38.31010 -104.15130 22230 ft 448 kts 117°
2026-05-05 12:50 38.29504 -104.11665 22770 ft 448 kts 128°
2026-05-05 12:50 38.27563 -104.08544 23234 ft 448 kts 138°
2026-05-05 12:50 38.25346 -104.05817 23696 ft 449 kts 144°
2026-05-05 12:50 38.22955 -104.03194 24161 ft 453 kts 146°
2026-05-05 12:51 38.20561 -104.00640 24642 ft 457 kts 146°
2026-05-05 12:51 38.18110 -103.98018 25010 ft 464 kts 147°
2026-05-05 12:51 38.15626 -103.95324 25344 ft 473 kts 146°
2026-05-05 12:51 38.13106 -103.92564 25666 ft 480 kts 146°
2026-05-05 12:52 38.10593 -103.89778 26015 ft 484 kts 146°
2026-05-05 12:52 38.08048 -103.86925 26413 ft 481 kts 146°
2026-05-05 12:52 38.05574 -103.84142 26816 ft 482 kts 146°
2026-05-05 12:52 38.03072 -103.81313 27219 ft 481 kts 146°
2026-05-05 12:53 38.00570 -103.78481 27626 ft 482 kts 147°
2026-05-05 12:53 37.98085 -103.75657 28032 ft 480 kts 147°
2026-05-05 12:53 37.95570 -103.72795 28440 ft 482 kts 147°
2026-05-05 12:53 37.93097 -103.69982 28850 ft 482 kts 148°
2026-05-05 12:54 37.88119 -103.64337 29657 ft 480 kts 148°
2026-05-05 12:54 37.85612 -103.61501 30045 ft 481 kts 149°
2026-05-05 12:54 37.83110 -103.58667 30414 ft 480 kts 149°
2026-05-05 12:55 37.80639 -103.55872 30785 ft 481 kts 149°
2026-05-05 12:55 37.78124 -103.53036 31164 ft 483 kts 149°
2026-05-05 12:55 37.75626 -103.50219 31547 ft 482 kts 149°
2026-05-05 12:55 37.73114 -103.47391 31919 ft 483 kts 149°
2026-05-05 12:56 37.70625 -103.44589 32283 ft 483 kts 149°
2026-05-05 12:56 37.68106 -103.41755 32665 ft 482 kts 149°
2026-05-05 12:56 37.65596 -103.38934 33046 ft 483 kts 150°
2026-05-05 12:56 37.63082 -103.36113 33437 ft 483 kts 150°
2026-05-05 12:57 37.60582 -103.33311 33879 ft 483 kts 150°
2026-05-05 12:57 37.58054 -103.30479 34332 ft 482 kts 150°
2026-05-05 12:57 37.55555 -103.27681 34785 ft 480 kts 150°
2026-05-05 12:57 37.53065 -103.24899 34942 ft 483 kts 150°
2026-05-05 12:58 37.50532 -103.22075 34942 ft 482 kts 150°
2026-05-05 12:58 37.45547 -103.16508 34940 ft 478 kts 150°
2026-05-05 12:59 37.40562 -103.10960 34940 ft 479 kts 150°
2026-05-05 12:59 37.35496 -103.05338 34942 ft 479 kts 150°
2026-05-05 13:00 37.27985 -102.97012 34932 ft 480 kts 150°
2026-05-05 13:01 37.18044 -102.86021 34937 ft 478 kts 150°
2026-05-05 13:01 37.13022 -102.80496 34937 ft 479 kts 150°
2026-05-05 13:02 37.08023 -102.75003 34934 ft 480 kts 150°
2026-05-05 13:02 37.03012 -102.69499 34932 ft 480 kts 150°
2026-05-05 13:03 36.98004 -102.64010 34930 ft 480 kts 150°
2026-05-05 13:03 36.92965 -102.58497 34928 ft 478 kts 150°
2026-05-05 13:04 36.87935 -102.53002 34926 ft 479 kts 150°
2026-05-05 13:04 36.82943 -102.47560 34922 ft 480 kts 150°
2026-05-05 13:05 36.77906 -102.42087 34923 ft 480 kts 150°
2026-05-05 13:05 36.72893 -102.36636 34927 ft 479 kts 150°
2026-05-05 13:06 36.67854 -102.31181 34924 ft 480 kts 151°
2026-05-05 13:06 36.62796 -102.25706 34924 ft 480 kts 151°
2026-05-05 13:07 36.57764 -102.20267 34923 ft 478 kts 151°
2026-05-05 13:07 36.52732 -102.14849 34913 ft 482 kts 151°
2026-05-05 13:08 36.47664 -102.09399 34905 ft 480 kts 151°
2026-05-05 13:08 36.42619 -102.03976 34905 ft 481 kts 151°
2026-05-05 13:09 36.37581 -101.98568 34900 ft 480 kts 151°
2026-05-05 13:09 36.32527 -101.93163 34891 ft 482 kts 151°
2026-05-05 13:10 36.27431 -101.87723 34887 ft 482 kts 152°
2026-05-05 13:10 36.22376 -101.82324 34894 ft 480 kts 151°
2026-05-05 13:11 36.17272 -101.76897 34883 ft 483 kts 151°
2026-05-05 13:11 36.12192 -101.71494 34885 ft 481 kts 151°
2026-05-05 13:12 36.07104 -101.66098 34874 ft 483 kts 152°
2026-05-05 13:12 36.01979 -101.60681 34870 ft 482 kts 152°
2026-05-05 13:13 35.96930 -101.55334 34871 ft 482 kts 152°
2026-05-05 13:13 35.91767 -101.49898 34868 ft 486 kts 152°
2026-05-05 13:14 35.86691 -101.44531 34868 ft 480 kts 152°
2026-05-05 13:14 35.81593 -101.39117 34870 ft 489 kts 149°
2026-05-05 13:15 35.76786 -101.33031 34877 ft 499 kts 143°
2026-05-05 13:15 35.72281 -101.26505 34871 ft 502 kts 141°
2026-05-05 13:16 35.67859 -101.19943 34865 ft 500 kts 141°
2026-05-05 13:16 35.63359 -101.13367 34859 ft 502 kts 141°
2026-05-05 13:17 35.58821 -101.06824 34857 ft 504 kts 141°
2026-05-05 13:17 35.54273 -101.00309 34866 ft 503 kts 141°
2026-05-05 13:18 35.49729 -100.93829 34842 ft 502 kts 142°
2026-05-05 13:18 35.45196 -100.87379 34829 ft 501 kts 142°
2026-05-05 13:19 35.40594 -100.80864 34815 ft 506 kts 141°
2026-05-05 13:19 35.35999 -100.74343 34814 ft 504 kts 141°
2026-05-05 13:20 35.31432 -100.67873 34814 ft 502 kts 142°
2026-05-05 13:20 35.26833 -100.61386 34816 ft 505 kts 141°
2026-05-05 13:21 35.22243 -100.54916 34817 ft 505 kts 142°
2026-05-05 13:21 35.17650 -100.48454 34815 ft 505 kts 141°
2026-05-05 13:22 35.13003 -100.41944 34805 ft 507 kts 141°
2026-05-05 13:22 35.08408 -100.35493 34800 ft 504 kts 141°
2026-05-05 13:23 35.03804 -100.29049 34791 ft 503 kts 142°
2026-05-05 13:23 34.99142 -100.22553 34797 ft 508 kts 142°
2026-05-05 13:24 34.94517 -100.16094 34795 ft 507 kts 142°
2026-05-05 13:24 34.89890 -100.09658 34792 ft 509 kts 142°
2026-05-05 13:25 34.85216 -100.03164 34788 ft 507 kts 141°
2026-05-05 13:25 34.80591 -99.96746 34777 ft 507 kts 142°
2026-05-05 13:26 34.75897 -99.90260 34763 ft 509 kts 141°
2026-05-05 13:26 34.71234 -99.83818 34764 ft 505 kts 141°
2026-05-05 13:27 34.66575 -99.77400 34764 ft 508 kts 141°
2026-05-05 13:27 34.61917 -99.70991 34754 ft 507 kts 141°
2026-05-05 13:28 34.57255 -99.64592 34752 ft 508 kts 141°
2026-05-05 13:28 34.52599 -99.58213 34747 ft 507 kts 141°
2026-05-05 13:29 34.47895 -99.51781 34744 ft 509 kts 141°
2026-05-05 13:29 34.43251 -99.45395 34745 ft 507 kts 140°
2026-05-05 13:30 34.38981 -99.38435 34739 ft 520 kts 131°
2026-05-05 13:30 34.35183 -99.30948 34738 ft 524 kts 128°
2026-05-05 13:31 34.31586 -99.23322 34729 ft 524 kts 127°
2026-05-05 13:31 34.29800 -99.19504 34490 ft 528 kts 127°
2026-05-05 13:31 34.27970 -99.15608 34190 ft 526 kts 127°
2026-05-05 13:32 34.26178 -99.11805 33903 ft 523 kts 127°
2026-05-05 13:32 34.24361 -99.07980 33430 ft 525 kts 128°
2026-05-05 13:32 34.22546 -99.04191 32816 ft 528 kts 128°
2026-05-05 13:32 34.20708 -99.00369 32232 ft 527 kts 127°
2026-05-05 13:33 34.18871 -98.96551 31656 ft 526 kts 127°
2026-05-05 13:33 34.17031 -98.92735 31075 ft 527 kts 127°
2026-05-05 13:33 34.15195 -98.88933 30494 ft 527 kts 127°
2026-05-05 13:33 34.13348 -98.85113 29920 ft 529 kts 127°
2026-05-05 13:34 34.11495 -98.81289 29339 ft 529 kts 127°
2026-05-05 13:34 34.09630 -98.77438 28755 ft 526 kts 127°
2026-05-05 13:34 34.07805 -98.73672 28189 ft 523 kts 126°
2026-05-05 13:34 34.05987 -98.69923 27622 ft 519 kts 126°
2026-05-05 13:35 34.04157 -98.66149 27051 ft 516 kts 126°
2026-05-05 13:35 34.02369 -98.62470 26482 ft 512 kts 126°
2026-05-05 13:35 34.00577 -98.58784 25903 ft 502 kts 126°
2026-05-05 13:35 33.98846 -98.55222 25360 ft 491 kts 126°
2026-05-05 13:36 33.97139 -98.51711 24816 ft 480 kts 126°
2026-05-05 13:36 33.95473 -98.48290 24275 ft 471 kts 125°
2026-05-05 13:36 33.93825 -98.44915 23750 ft 461 kts 126°
2026-05-05 13:36 33.92206 -98.41607 23295 ft 456 kts 126°
2026-05-05 13:37 33.90609 -98.38355 22834 ft 454 kts 126°
2026-05-05 13:37 33.89015 -98.35113 22384 ft 449 kts 126°
2026-05-05 13:37 33.87405 -98.31840 21923 ft 446 kts 126°
2026-05-05 13:37 33.85833 -98.28646 21467 ft 444 kts 126°
2026-05-05 13:38 33.84272 -98.25479 21006 ft 442 kts 126°
2026-05-05 13:38 33.82697 -98.22282 20546 ft 439 kts 126°
2026-05-05 13:38 33.81151 -98.19146 20082 ft 438 kts 126°
2026-05-05 13:38 33.79610 -98.16023 19617 ft 435 kts 126°
2026-05-05 13:39 33.78077 -98.12916 19174 ft 434 kts 126°
2026-05-05 13:39 33.76525 -98.09777 18737 ft 432 kts 126°
2026-05-05 13:39 33.75004 -98.06701 18304 ft 430 kts 125°
2026-05-05 13:39 33.73470 -98.03599 17870 ft 428 kts 125°
2026-05-05 13:40 33.71961 -98.00549 17432 ft 426 kts 126°
2026-05-05 13:40 33.70468 -97.97530 16995 ft 421 kts 125°
2026-05-05 13:40 33.68975 -97.94513 16552 ft 417 kts 125°
2026-05-05 13:40 33.67508 -97.91550 16122 ft 412 kts 125°
2026-05-05 13:41 33.66052 -97.88617 15713 ft 407 kts 125°
2026-05-05 13:41 33.64611 -97.85716 15294 ft 402 kts 125°
2026-05-05 13:41 33.63168 -97.82818 14876 ft 400 kts 125°
2026-05-05 13:41 33.61748 -97.79968 14476 ft 395 kts 125°
2026-05-05 13:42 33.60367 -97.77196 14093 ft 390 kts 125°
2026-05-05 13:42 33.58971 -97.74397 13704 ft 385 kts 124°
2026-05-05 13:42 33.57618 -97.71686 13322 ft 380 kts 124°
2026-05-05 13:42 33.56259 -97.68963 12929 ft 375 kts 124°
2026-05-05 13:43 33.54929 -97.66304 12543 ft 371 kts 124°
2026-05-05 13:43 33.53609 -97.63664 12158 ft 366 kts 124°
2026-05-05 13:43 33.52307 -97.61063 11770 ft 362 kts 124°
2026-05-05 13:43 33.51030 -97.58514 11395 ft 353 kts 124°
2026-05-05 13:44 33.49797 -97.56049 11036 ft 344 kts 124°
2026-05-05 13:44 33.48573 -97.53606 10672 ft 335 kts 124°
2026-05-05 13:44 33.47393 -97.51255 10312 ft 327 kts 124°
2026-05-05 13:44 33.46235 -97.48951 10020 ft 317 kts 124°
2026-05-05 13:45 33.45105 -97.46699 9773 ft 312 kts 123°
2026-05-05 13:45 33.44040 -97.44466 9523 ft 308 kts 121°
2026-05-05 13:45 33.43041 -97.42218 9250 ft 306 kts 120°
2026-05-05 13:45 33.42060 -97.39968 8982 ft 306 kts 120°
2026-05-05 13:46 33.41065 -97.37700 8719 ft 306 kts 120°
2026-05-05 13:46 33.40086 -97.35488 8492 ft 298 kts 121°
2026-05-05 13:46 33.39109 -97.33298 8232 ft 299 kts 121°
2026-05-05 13:46 33.38111 -97.31072 7959 ft 300 kts 121°
2026-05-05 13:47 33.37085 -97.28934 7695 ft 296 kts 130°
2026-05-05 13:47 33.35580 -97.27345 7444 ft 285 kts 154°
2026-05-05 13:47 33.33802 -97.26271 7211 ft 283 kts 161°
2026-05-05 13:47 33.32021 -97.25262 6976 ft 283 kts 159°
2026-05-05 13:48 33.30289 -97.24174 6743 ft 283 kts 156°
2026-05-05 13:48 33.28565 -97.22999 6499 ft 282 kts 154°
2026-05-05 13:48 33.26887 -97.21812 6260 ft 281 kts 154°
2026-05-05 13:48 33.25216 -97.20622 6018 ft 277 kts 154°
2026-05-05 13:49 33.23542 -97.19430 5772 ft 276 kts 154°
2026-05-05 13:49 33.21899 -97.18266 5529 ft 274 kts 154°
2026-05-05 13:49 33.20271 -97.17115 5285 ft 273 kts 154°
2026-05-05 13:49 33.18618 -97.15948 5038 ft 271 kts 155°
2026-05-05 13:50 33.17007 -97.14809 4795 ft 269 kts 155°
2026-05-05 13:50 33.15391 -97.13667 4549 ft 266 kts 155°
2026-05-05 13:50 33.13821 -97.12559 4308 ft 264 kts 155°
2026-05-05 13:50 33.12230 -97.11437 4064 ft 264 kts 155°
2026-05-05 13:51 33.10662 -97.10331 3820 ft 262 kts 156°
2026-05-05 13:51 33.09087 -97.09222 3575 ft 260 kts 156°
2026-05-05 13:51 33.07543 -97.08134 3331 ft 255 kts 156°
2026-05-05 13:51 33.06056 -97.07107 3081 ft 232 kts 159°
2026-05-05 13:52 33.04660 -97.06378 2831 ft 207 kts 167°
2026-05-05 13:52 33.03349 -97.05708 2588 ft 205 kts 158°
2026-05-05 13:52 33.02206 -97.04691 2485 ft 206 kts 145°
2026-05-05 13:52 33.01152 -97.03482 2473 ft 210 kts 143°
2026-05-05 13:53 33.00106 -97.02278 2474 ft 209 kts 143°
2026-05-05 13:53 32.99044 -97.01065 2473 ft 211 kts 143°
2026-05-05 13:53 32.97989 -96.99841 2474 ft 212 kts 142°
2026-05-05 13:53 32.96926 -96.98606 2475 ft 211 kts 142°
2026-05-05 13:54 32.95873 -96.97388 2476 ft 210 kts 143°
2026-05-05 13:54 32.94815 -96.96165 2478 ft 210 kts 143°
2026-05-05 13:54 32.93763 -96.94946 2477 ft 209 kts 142°
2026-05-05 13:54 32.92786 -96.93804 2378 ft 190 kts 143°
2026-05-05 13:55 32.91863 -96.92773 2173 ft 170 kts 146°
2026-05-05 13:55 32.91017 -96.91848 1972 ft 165 kts 145°
2026-05-05 13:55 32.90185 -96.90919 1779 ft 162 kts 144°
2026-05-05 13:55 32.89364 -96.89991 1551 ft 162 kts 142°
2026-05-05 13:56 32.88588 -96.89007 1331 ft 159 kts 140°
2026-05-05 13:56 32.87794 -96.88108 1106 ft 157 kts 141°
2026-05-05 13:56 32.87025 -96.87183 898 ft 155 kts 141°
2026-05-05 13:56 32.86253 -96.86297 658 ft 154 kts 142°
2026-05-05 13:57 32.85490 -96.85406 497 ft 149 kts 140°
2026-05-05 13:57 32.84875 -96.84695 489 ft 83 kts 135°
2026-05-05 13:57 32.84588 -96.84359 491 ft 34 kts 136°
2026-05-05 13:57 32.84467 -96.84248 491 ft 15 kts 181°
2026-05-05 13:58 32.84410 -96.84323 490 ft 13 kts 277°
2026-05-05 13:58 32.84468 -96.84409 490 ft 13 kts 316°
2026-05-05 13:58 32.84533 -96.84480 489 ft 12 kts 316°
2026-05-05 13:58 32.84610 -96.84569 489 ft 18 kts 315°
2026-05-05 13:59 32.84768 -96.84753 488 ft 10 kts 304°
2026-05-05 13:59 32.84754 -96.84833 487 ft 10 kts 242°
2026-05-05 14:00 32.84720 -96.84933 486 ft 4 kts 202°
2026-05-05 14:00 32.84697 -96.84938 486 ft 4 kts 184°
2026-05-05 14:00 32.84656 -96.84940 486 ft 3 kts 181°
2026-05-05 14:00 32.84650 -96.84940 486 ft 0 kts 180°